This demonstration page uses our WeatherBlox Daily Observations layout. Learn more.

Left ArrowRight Arrow

Hourly Observations for April 25, 2022

Temp ( °F °C ) Dew Point ( °F °C ) Humidity (%) Winds ( mph kmh ) Pressure ( in mb ) Visibility ( mi km ) Precip ( " mm )
12:15 am 00:15 Clear 35 1.9 27 -2.8 71 71 W 7 11 30.28 1025 10 16 0.00 0.00
12:35 am 00:35 Clear 36 2.2 27 -2.9 69 69 WNW 9 15 30.27 1025 10 16 0.00 0.00
12:55 am 00:55 Clear 36 2.4 26 -3.1 67 67 WNW 8 13 30.27 1025 10 16 0.00 0.00
1:15 am 01:15 Clear 37 2.5 26 -3.1 67 67 WNW 8 13 30.29 1026 10 16 0.00 0.00
1:35 am 01:35 Clear 36 2.2 26 -3.2 68 68 WNW 10 17 30.29 1026 10 16 0.00 0.00
1:55 am 01:55 Clear 35 1.5 26 -3.4 70 70 WNW 9 15 30.31 1026 10 16 0.00 0.00
2:15 am 02:15 Clear 35 1.4 26 -3.5 70 70 WNW 8 13 30.30 1026 10 16 0.00 0.00
2:35 am 02:35 Clear 34 1.2 26 -3.6 71 71 WNW 9 15 30.29 1026 10 16 0.00 0.00
2:55 am 02:55 Clear 33 0.4 25 -3.9 73 73 WNW 6 9 30.31 1026 10 16 0.00 0.00
3:15 am 03:15 Clear 33 0.3 25 -3.7 75 75 WNW 7 11 30.31 1027 10 16 0.00 0.00
3:35 am 03:35 Clear 34 1 26 -3.6 72 72 WNW 7 11 30.32 1027 10 16 0.00 0.00
3:55 am 03:55 Clear 33 0.3 25 -3.8 74 74 WNW 7 11 30.32 1027 10 16 0.00 0.00
4:15 am 04:15 Clear 32 0 25 -4 75 75 WNW 8 13 30.34 1027 10 16 0.00 0.00
4:35 am 04:35 Clear 33 0.6 26 -3.6 74 74 WNW 9 15 30.33 1027 10 16 0.00 0.00
4:55 am 04:55 Clear 32 0.1 26 -3.6 76 76 W 8 13 30.34 1028 10 16 0.00 0.00
5:15 am 05:15 Clear 33 0.5 26 -3.6 74 74 W 10 17 30.35 1028 10 16 0.00 0.00
5:35 am 05:35 Clear 33 0.5 25 -3.7 74 74 WNW 8 13 30.35 1028 10 16 0.00 0.00
5:55 am 05:55 Clear 32 0 25 -4.1 74 74 WNW 8 13 30.36 1028 10 16 0.00 0.00
6:15 am 06:15 Clear 32 0 25 -4.1 74 74 WNW 7 11 30.36 1028 10 16 0.00 0.00
6:35 am 06:35 Clear 30 -0.9 24 -4.3 78 78 WNW 6 9 30.37 1029 10 16 0.00 0.00
6:55 am 06:55 Sunny 30 -1 24 -4.5 77 77 WNW 8 13 30.39 1029 10 16 0.00 0.00
7:15 am 07:15 Sunny 29 -1.5 24 -4.6 80 80 NW 9 15 30.39 1029 10 16 0.00 0.00
7:35 am 07:35 Sunny 32 -0.2 25 -4 76 76 NW 9 15 30.40 1029 10 16 0.00 0.00
7:55 am 07:55 Sunny 33 0.7 26 -3.2 75 75 NW 9 15 30.40 1029 10 16 0.00 0.00
8:15 am 08:15 Sunny 36 2 27 -2.8 71 71 NW 12 19 30.39 1029 10 16 0.00 0.00
8:35 am 08:35 Sunny 38 3.1 25 -3.8 61 61 NNW 20 31 30.39 1029 10 16 0.00 0.00
8:55 am 08:55 Sunny 39 4 25 -3.9 57 57 NNW 18 30 30.38 1029 10 16 0.00 0.00
9:15 am 09:15 Sunny 40 4.5 25 -4.1 54 54 NNW 21 33 30.37 1029 10 16 0.00 0.00
9:35 am 09:35 Sunny 41 5.2 23 -4.8 49 49 NNW 20 31 30.37 1028 10 16 0.00 0.00
9:55 am 09:55 Sunny 42 5.8 23 -4.9 46 46 NNW 22 35 30.36 1028 10 16 0.00 0.00
10:15 am 10:15 Sunny 44 6.7 22 -5.4 42 42 N 23 37 30.35 1028 10 16 0.00 0.00
10:35 am 10:35 Sunny 45 7.4 21 -5.9 39 39 NNW 24 39 30.35 1028 10 16 0.00 0.00
10:55 am 10:55 Sunny 47 8.5 21 -5.9 36 36 N 23 37 30.34 1027 10 16 0.00 0.00
11:15 am 11:15 Sunny 49 9.3 21 -6.2 33 33 NNW 18 30 30.33 1027 10 16 0.00 0.00
11:35 am 11:35 Sunny 49 9.4 19 -7 31 31 NNW 21 33 30.33 1027 10 16 0.00 0.00
11:55 am 11:55 Sunny 51 10.4 19 -7.3 28 28 N 18 30 30.32 1027 10 16 0.00 0.00
12:15 pm 12:15 Sunny 51 10.6 18 -7.8 27 27 NNW 22 35 30.32 1027 10 16 0.00 0.00
12:35 pm 12:35 Sunny 52 11.3 17 -8.2 25 25 NNW 17 28 30.31 1026 10 16 0.00 0.00
12:55 pm 12:55 Sunny 53 11.6 18 -7.9 25 25 N 23 37 30.31 1026 10 16 0.00 0.00
1:15 pm 13:15 Sunny 54 12 17 -8.3 24 24 NNW 20 31 30.31 1026 10 16 0.00 0.00
1:35 pm 13:35 Sunny 55 12.6 15 -9.4 21 21 N 18 30 30.29 1026 10 16 0.00 0.00
1:55 pm 13:55 Sunny 55 12.8 16 -8.8 21 21 N 21 33 30.28 1025 10 16 0.00 0.00
2:15 pm 14:15 Sunny 56 13.1 14 -10.2 19 19 NW 13 20 30.28 1025 10 16 0.00 0.00
2:35 pm 14:35 Sunny 57 13.9 14 -9.8 18 18 N 18 30 30.27 1025 10 16 0.00 0.00
2:55 pm 14:55 Sunny 56 13.4 13 -10.3 18 18 N 14 22 30.26 1025 10 16 0.00 0.00
3:15 pm 15:15 Sunny 57 14.1 14 -10.1 18 18 NW 14 22 30.27 1025 10 16 0.00 0.00
3:35 pm 15:35 Sunny 57 14 14 -9.9 18 18 NNW 14 22 30.26 1025 10 16 0.00 0.00
3:55 pm 15:55 Sunny 59 14.8 14 -9.9 17 17 NNW 15 24 30.25 1024 10 16 0.00 0.00
4:15 pm 16:15 Sunny 58 14.5 13 -10.3 17 17 N 20 31 30.25 1024 10 16 0.00 0.00
4:35 pm 16:35 Sunny 58 14.2 12 -11.3 16 16 N 10 17 30.26 1025 10 16 0.00 0.00
4:55 pm 16:55 Sunny 58 14.7 11 -11.6 15 15 N 17 28 30.25 1024 10 16 0.00 0.00
5:15 pm 17:15 Sunny 58 14.5 10 -12 15 15 N 18 30 30.24 1024 10 16 0.00 0.00
5:35 pm 17:35 Sunny 58 14.3 9 -12.7 14 14 N 12 19 30.25 1025 10 16 0.00 0.00
5:55 pm 17:55 Sunny 58 14.4 10 -12.2 15 15 NNW 14 22 30.25 1025 10 16 0.00 0.00
6:15 pm 18:15 Sunny 57 14 8 -13.2 14 14 N 14 22 30.26 1025 10 16 0.00 0.00
6:35 pm 18:35 Sunny 57 14 9 -13 14 14 N 13 20 30.27 1025 10 16 0.00 0.00
6:55 pm 18:55 Sunny 56 13.6 9 -12.9 15 15 NNE 13 20 30.27 1025 10 16 0.00 0.00
7:15 pm 19:15 Sunny 56 13.3 10 -12.5 15 15 N 14 22 30.28 1026 10 16 0.00 0.00
7:35 pm 19:35 Sunny 55 12.8 10 -12.1 17 17 N 12 19 30.29 1026 10 16 0.00 0.00
7:55 pm 19:55 Sunny 54 12 11 -11.6 18 18 NNE 9 15 30.30 1026 10 16 0.00 0.00
8:15 pm 20:15 Sunny 50 10.1 11 -11.4 21 21 NNE 9 15 30.31 1026 10 16 0.00 0.00
8:35 pm 20:35 Clear 47 8.2 12 -11.2 24 24 NE 8 13 30.34 1027 10 16 0.00 0.00
8:55 pm 20:55 Clear 46 7.8 12 -11.3 25 25 NE 8 13 30.34 1028 10 16 0.00 0.00
9:15 pm 21:15 Clear 45 7.2 11 -11.6 25 25 NE 9 15 30.36 1028 10 16 0.00 0.00
9:35 pm 21:35 Clear 46 7.9 10 -12 23 23 NE 8 13 30.36 1028 10 16 0.00 0.00
9:55 pm 21:55 Clear 47 8.5 10 -12.5 21 21 NE 9 15 30.36 1028 10 16 0.00 0.00
10:15 pm 22:15 Clear 43 6.3 11 -11.8 26 26 E 6 9 30.38 1029 10 16 0.00 0.00
10:35 pm 22:35 Clear 40 4.5 12 -10.9 32 32 E 7 11 30.40 1030 10 16 0.00 0.00
10:55 pm 22:55 Clear 40 4.6 13 -10.8 32 32 E 7 11 30.40 1030 10 16 0.00 0.00
11:15 pm 23:15 Clear 40 4.4 11 -11.9 30 30 ESE 5 7 30.40 1030 10 16 0.00 0.00
11:35 pm 23:35 Clear 37 2.8 13 -10.6 37 37 SSE 3 6 30.42 1030 10 16 0.00 0.00
11:55 pm 23:55 Clear 39 3.8 12 -11 33 33 SE 5 7 30.41 1030 10 16 0.00 0.00

Powered by AerisWeather